927  
ASUS44 KLIX 201011  
RWRLIX  
NEW ORLEANS REGIONAL WEATHER ROUNDUP  
NATIONAL WEATHER SERVICE NEW ORLEANS LA  
400 AM CST THU FEB 20 2020  
 
NOTE: "FAIR" INDICATES FEW OR NO CLOUDS BELOW 12,000 FEET WITH NO  
SIGNIFICANT WEATHER AND/OR S TO VISIBILITY
.  
SKY/WX - SKY CONDITION AND SIGNIFICANT WEATHER.  
TMP - AIR TEMPERATURE. DP - DEWPOINT TEMPERATURE.  
RH - RELATIVE HUMIDITY. PRES - PRESSURE.  
HI - HEAT INDEX. WCI - WIND CHILL INDEX.  
 
* THESE STATIONS ARE NOT NWS OR FAA STATIONS AND ARE NOT UNDER  
NWS QUALITY CONTROL.  
 
LAZ038-040-048-061>063-065>067-069-201100-  
SOUTHEAST LOUISIANA  
 
CITY SKY/WX TMP DP RH WIND PRES REMARKS
 
N.O. INTL ARPT CLOUDY 62 58 86 E9 30.07F  
N.O. LAKEFRONT CLOUDY 61 57 87 E13 30.08F  
N.O. DOWNTOWN* CLOUDY 61 58 90 SE10G16 30.09F  
RESERVE* CLOUDY 60 56 86 MISG 30.08S HAZE  
SLIDELL CLOUDY 58 55 90 E5 30.07F  
BATON ROUGE LGT RAIN 55 54 96 E5 30.07F FOG  
BOOTHVILLE* CLOUDY 59 58 97 CALM 30.09F VSB 3/4  
BELLE CHASSE* CLOUDY 61 61 100 E7 30.08F  
BOGALUSA* CLOUDY 56 53 89 NE3 30.10S  
GALLIANO* CLOUDY 64 62 94 E6 30.07F FOG  
NEW ROADS* LGT RAIN 54 54 100 CALM 30.08F  
GONZALES* RAIN 61 60 98 CALM 30.06F  
HAMMOND* LGT RAIN 54 54 100 CALM 30.07F  
HOUMA* LGT RAIN 63 63 99 E5 30.07F  
PORT FOURCHON* FOG 64 64 100 E9 30.07F VSB 1/4  
 

 
 
MSZ070-080>082-201100-  
SOUTHERN MISSISSIPPI  
 
CITY SKY/WX TMP DP RH WIND PRES REMARKS
 
MCCOMB LGT RAIN 52 51 97 E3 30.06F  
GULFPORT CLOUDY 57 53 86 NE5 30.10S  
BILOXI CLOUDY 57 52 85 NE8 30.09F  
PASCAGOULA CLOUDY 59 55 87 N5 30.10S  
 

 
 
COASTAL OBSERVATIONS  
LAKE AND NEARSHORE STATIONS  
 
STATION/POSITION TIME SKY/WX TEMP WIND PRES WAVE
 
AIR SEA DIR/SP/G HT/PER  
(UTC) (F) (DEG/KT/KT) (MB) (FT/S)  
WAVELAND YACHT 0930 57 63 1019.5  
GRAND ISLE 0930 65 N/A  
SOUTHWEST PASS 0924 62 51 1017.0  
NEW CANAL 0930 60 63 1018.0  
SHELL BEACH 0930 61 66 1019.0  
 
OFFSHORE STATIONS  
 
STATION/POSITION TIME SKY/WX TEMP WIND PRES WAVE
 
AIR SEA DIR/SP/G HT/PER  
(UTC) (F) (DEG/KT/KT) (MB) (FT/S)  
64 S DAUPHIN ISL 1000 70 100/ 8/ 12 1018.9  
 

 
 
 
 
CLICK HERE TO GO TO PREVIOUS BULLETINS.

The Nexlab LA Page
The Nexlab MS Page Main Text Page